Weather History for Keene, NH

Change the Weather History Date:

Monday, January 14, 2013

  Actual Average Record
Temperature  
Mean Temperature 43 °F -  
Max Temperature 51 °F 31 °F 66 °F (1932)
Min Temperature 35 °F 9 °F -28 °F (1957)
Degree Days  
Heating Degree Days 22    
Moisture  
Dew Point 33 °F    
Average Humidity 74    
Maximum Humidity 100    
Minimum Humidity 50    
Precipitation  
Precipitation 0.00 in - - ()
Sea Level Pressure  
Sea Level Pressure 30.07 in    
Wind  
Wind Speed 3 mph (WNW)    
Max Wind Speed 13 mph    
Max Gust Speed 23 mph    
Visibility 6 miles    
Events      
Averages and records for this station are not official NWS values.
T = Trace of Precipitation, MM = Missing Value Source: NWS Daily Summary

Daily Weather History Graph

Daily Weather History Graph

Search for Another Location

Airport:

Trip Planner

Search our weather history database for the weather conditions in past years. The results will help you decide how hot, cold, wet, or windy it might be!

Date:

Astronomy

Jan. 14, 2013 Rise Set
Actual Time 7:17 AM EST 4:39 PM EST
Civil Twilight 6:46 AM EST 5:10 PM EST
Nautical Twilight 6:11 AM EST 5:45 PM EST
Astronomical Twilight 5:37 AM EST 6:19 PM EST
Moon 8:43 AM EST (1/14) 8:28 PM EST (1/14)
Length of Visible Light 10h 24m
Length of Day
9h 21m
Waxing Crescent, 11% of the Moon is Illuminated
Jan 14
Waxing Crescent
Jan 18
First Quarter
Jan 26
Full
Feb 3
Last Quarter
Feb 10
New

Hourly Weather History & Observations

Time (EST) Temp. Windchill Dew Point Humidity Pressure Visibility Wind Dir Wind Speed Gust Speed Precip Events Conditions
12:15 AM 37.4 °F - 35.6 °F 93% 29.99 in 0.2 mi Calm Calm - N/A   Overcast
12:35 AM 37.4 °F - 35.6 °F 93% 29.98 in 0.5 mi Calm Calm - N/A   Overcast
12:55 AM 37.4 °F - 35.6 °F 93% 29.98 in 0.2 mi Calm Calm - N/A   Overcast
1:35 AM 37.4 °F - 35.6 °F 93% 29.98 in 0.5 mi Calm Calm - N/A   Overcast
1:55 AM 37.4 °F - 35.6 °F 93% 29.98 in 0.5 mi Calm Calm - N/A   Overcast
2:15 AM 35.6 °F - 33.8 °F 93% 29.97 in 0.5 mi Calm Calm - N/A   Overcast
2:55 AM 37.4 °F - 35.6 °F 93% 29.97 in 1.2 mi Calm Calm - N/A   Overcast
3:15 AM 35.6 °F - 35.6 °F 100% 29.96 in 0.8 mi Calm Calm - N/A   Overcast
3:35 AM 35.6 °F - 33.8 °F 93% 29.96 in 0.2 mi Calm Calm - N/A   Overcast
3:55 AM 35.6 °F - 33.8 °F 93% 29.96 in 0.5 mi Calm Calm - N/A   Overcast
5:15 AM 41.0 °F 35.2 °F 39.2 °F 93% 29.91 in 0.8 mi SSW 9.2 mph - N/A   Overcast
5:35 AM 42.8 °F 37.5 °F 41.0 °F 93% 29.91 in 7.0 mi South 9.2 mph - N/A   Overcast
5:55 AM 44.6 °F 40.2 °F 42.8 °F 93% 29.88 in 10.0 mi West 8.1 mph 20.7 mph N/A   Scattered Clouds
6:15 AM 44.6 °F 43.1 °F 42.8 °F 93% 29.91 in 10.0 mi SSW 3.5 mph - N/A   Mostly Cloudy
6:35 AM 42.8 °F 40.1 °F 39.2 °F 87% 29.93 in 1.0 mi North 4.6 mph - N/A   Overcast
6:55 AM 42.8 °F - 39.2 °F 87% 29.93 in 1.0 mi Calm Calm - N/A   Overcast
7:35 AM 39.2 °F 35.0 °F 39.2 °F 100% 29.95 in 0.8 mi SSW 5.8 mph - N/A   Overcast
7:55 AM 41.0 °F 35.2 °F 39.2 °F 93% 29.95 in 1.2 mi SSW 9.2 mph - N/A   Overcast
8:15 AM 41.0 °F - 39.2 °F 93% 29.97 in 0.2 mi Calm Calm - N/A   Overcast
8:35 AM 41.0 °F 38.0 °F 39.2 °F 93% 29.99 in 0.2 mi NNE 4.6 mph - N/A   Overcast
8:55 AM 44.6 °F 42.2 °F 42.8 °F 93% 30.00 in 0.5 mi South 4.6 mph - N/A   Overcast
9:15 AM 42.8 °F 41.1 °F 41.0 °F 93% 30.01 in 0.5 mi South 3.5 mph - N/A   Overcast
9:35 AM 42.8 °F - 41.0 °F 93% 30.01 in 0.8 mi Calm Calm - N/A   Overcast
10:15 AM 42.8 °F - 41.0 °F 93% 30.00 in 0.2 mi Calm Calm - N/A   Unknown
10:35 AM 44.6 °F - 42.8 °F 93% 30.01 in 8.0 mi Calm Calm - N/A   Clear
10:55 AM 46.4 °F - 44.6 °F 93% 30.01 in 10.0 mi Calm Calm - N/A   Clear
11:35 AM 51.8 °F - 44.6 °F 76% 30.01 in 10.0 mi SW 8.1 mph - N/A   Clear
11:55 AM 51.8 °F - 42.8 °F 71% 30.02 in 10.0 mi WSW 12.7 mph 18.4 mph N/A   Clear
12:35 PM 51.8 °F - 39.2 °F 62% 30.04 in 10.0 mi WNW 11.5 mph 23.0 mph N/A   Clear
12:55 PM 51.8 °F - 37.4 °F 58% 30.06 in 10.0 mi WNW 11.5 mph 20.7 mph N/A   Clear
1:15 PM 50.0 °F - 35.6 °F 58% 30.06 in 10.0 mi WNW 10.4 mph 17.3 mph N/A   Clear
1:35 PM 50.0 °F - 35.6 °F 58% 30.07 in 10.0 mi NW 3.5 mph - N/A   Clear
1:55 PM 51.8 °F - 35.6 °F 54% 30.08 in 10.0 mi NW 9.2 mph 18.4 mph N/A   Clear
2:15 PM 50.0 °F - 33.8 °F 54% 30.09 in 10.0 mi West 10.4 mph - N/A   Partly Cloudy
2:35 PM 50.0 °F - 32.0 °F 50% 30.11 in 10.0 mi WNW 10.4 mph 18.4 mph N/A   Scattered Clouds
2:55 PM 48.2 °F - 30.2 °F 50% 30.11 in 10.0 mi West 10.4 mph 18.4 mph N/A   Scattered Clouds
3:35 PM 48.2 °F - 30.2 °F 50% 30.13 in 10.0 mi WNW 11.5 mph 18.4 mph N/A   Clear
3:55 PM 46.4 °F 41.5 °F 30.2 °F 53% 30.13 in 10.0 mi WNW 10.4 mph - N/A   Clear
4:15 PM 46.4 °F 42.4 °F 30.2 °F 53% 30.14 in 10.0 mi WNW 8.1 mph - N/A   Clear
4:55 PM 44.6 °F - 28.4 °F 53% 30.15 in 10.0 mi Calm Calm - N/A   Clear
5:15 PM 44.6 °F 41.4 °F 28.4 °F 53% 30.15 in 10.0 mi WNW 5.8 mph - N/A   Clear
5:55 PM 41.0 °F - 26.6 °F 57% 30.14 in 10.0 mi Calm Calm - N/A   Clear
6:15 PM 37.4 °F - 28.4 °F 70% 30.16 in 10.0 mi Calm Calm - N/A   Clear
6:35 PM 37.4 °F - 28.4 °F 70% 30.16 in 10.0 mi Calm Calm - N/A   Clear
6:55 PM 35.6 °F 32.8 °F 28.4 °F 75% 30.18 in 10.0 mi West 3.5 mph - N/A   Clear
7:15 PM 35.6 °F - 28.4 °F 75% 30.20 in 10.0 mi Calm Calm - N/A   Clear
7:35 PM 37.4 °F 34.9 °F 28.4 °F 70% 30.22 in 10.0 mi North 3.5 mph - N/A   Clear
8:15 PM 39.2 °F 35.9 °F 26.6 °F 61% 30.23 in 10.0 mi North 4.6 mph - N/A   Clear
8:35 PM 39.2 °F 35.0 °F 24.8 °F 56% 30.23 in 10.0 mi NNW 5.8 mph - N/A   Clear
8:55 PM 37.4 °F 34.9 °F 24.8 °F 60% 30.23 in 10.0 mi WNW 3.5 mph - N/A   Clear
9:15 PM 37.4 °F 34.9 °F 23.0 °F 56% 30.24 in 10.0 mi NW 3.5 mph - N/A   Clear
9:35 PM 37.4 °F 32.1 °F 23.0 °F 56% 30.23 in 10.0 mi NNW 6.9 mph - N/A   Clear
9:55 PM 37.4 °F 32.1 °F 21.2 °F 52% 30.23 in 10.0 mi NNW 6.9 mph - N/A   Clear
10:15 PM 37.4 °F 32.1 °F 21.2 °F 52% 30.25 in 10.0 mi NNW 6.9 mph - N/A   Clear
10:35 PM 37.4 °F 33.8 °F 21.2 °F 52% 30.24 in 10.0 mi North 4.6 mph - N/A   Clear
10:55 PM 35.6 °F - 21.2 °F 56% 30.25 in 10.0 mi Calm Calm - N/A   Clear
11:15 PM 35.6 °F - 23.0 °F 60% 30.26 in 10.0 mi Calm Calm - N/A   Clear
11:55 PM 35.6 °F - 23.0 °F 60% 30.28 in 10.0 mi Calm Calm - N/A   Clear